Regional Weather Roundup
Issued by NWS

Home | Current Version | Previous Version | Text Only | Print | Product List | Glossary Off
Versions: 1 2 3 4 5 6 7 8 9 10 11 12 13 14 15 16 17 18 19 20 21 22 23 24 25 26 27 28 29 30 31 32 33 34 35 36 37 38 39 40 41 42 43 44 45 46 47 48 49 50

000
ASUS43 KLSX 061859
RWRMO

WEATHER SUMMARY FOR MISSOURI
NATIONAL WEATHER SERVICE SPRINGFIELD MO
200 PM CDT WED MAY 06 2015

NOTE: "FAIR" INDICATES FEW OR NO CLOUDS BELOW 12,000 FEET WITH NO
       SIGNIFICANT WEATHER AND/OR OBSTRUCTIONS TO VISIBILITY.
       CURRENT SKY AND/OR WEATHER CONDITIONS ARE NOT AVAILABLE FOR
       CHILLICOTHE AND FARMINGTON.

MOZ001>031-035>038-043-044-053-054-062000-
...NORTHERN AND WESTERN MISSOURI...

CITY           SKY/WX    TMP DP  RH WIND       PRES   REMARKS
KANSAS CTY INT CLOUDY    73  61  65 S16G26    29.95F
KANSAS C DTWN  CLOUDY    75  60  59 S9G21     29.94F
LEE`S SUMMIT   CLOUDY    72  60  66 S12G22    29.96F
ST JOSEPH      CLOUDY    68  60  75 S10       29.93F
CHILLICOTHE      N/A     69  61  75 S9G20     30.02R
KIRKSVILLE     LGT RAIN  71  59  65 SW7       30.03R

$$
MOZ066>068-077>081-088>096-101>105-062000-
...SOUTHWEST MISSOURI...

CITY           SKY/WX    TMP DP  RH WIND       PRES   REMARKS
SPRINGFIELD    CLOUDY    72  61  68 S17       30.03F
JOPLIN         MOSUNNY   77  59  53 S24G30    29.97F

$$
MOZ032>034-039>042-045>050-055>058-069>072-062000-
...CENTRAL MISSOURI...

CITY           SKY/WX    TMP DP  RH WIND       PRES   REMARKS
COLUMBIA       PTSUNNY   77  57  50 S15       30.03F
JEFFERSON CITY PTSUNNY   80  54  40 S18G24    30.02F
ROLLA          PTSUNNY   77  60  55 S8        30.05F
SEDALIA        CLOUDY    68  61  78 S13       30.04S
OSAGE BEACH    CLOUDY    79  55  44 S8G22     30.03F

$$
MOZ051-052-059>065-062000-
...EAST CENTRAL MISSOURI...

CITY           SKY/WX    TMP DP  RH WIND       PRES   REMARKS
ST LOUIS INTL  MOSUNNY   86  53  32 S12G24    30.07F
SPIRIT OF STL  MOSUNNY   84  52  33 S10G22    30.05F
ST CHARLES     MOSUNNY   85  54  34 S23G32    30.05F

$$
MOZ072>076-082>087-097>100-106>115-062000-
...SOUTH CENTRAL AND SOUTHEAST MISSOURI...

CITY           SKY/WX    TMP DP  RH WIND       PRES   REMARKS
CAPE GIRARDEAU SUNNY     84  53  34 S16       30.10F
FARMINGTON     MOSUNNY   81  54  39 S15       30.14F
POPLAR BLUFF   MOSUNNY   81  54  39 S14       30.08F
WEST PLAINS    PTSUNNY   78  55  44 S14       30.09F

$$


USA.gov is the U.S. government's official web portal to all federal, state and local government web resources and services.